Location: Arbon
(43.0005°N, 0.7472°E)
Time: 22:43:00
(UTC+00:00)

Courier 1B Rocket - Pass Details

Date: 04 December 2020
Orbit: 920 x 1202 km, 28.2° (Epoch: 23 January)

Event Time Altitude Azimuth Distance (km) Brightness Sun altitude
Exits shadow 06:15:35 - 250° (WSW) 3,968 7.7 -10.1°
Reaches altitude 10° 06:18:37 10° 239° (WSW) 3,125 7.3 -9.6°
Maximum altitude 06:24:40 25° 188° (S) 2,201 7.0 -8.6°
Drops below altitude 10° 06:30:41 10° 137° (SE) 3,095 8.9 -7.6°
Sets 06:34:02 0° 124° (SE) 4,028 10.4 -7.0°
